STARLINK-1572, 46060

Orbit data source: Space-Track

STARLINK-1572, 46060 is a payload satellite owned by SpaceX/Seattle (US) in LEO that was launched on Fri, 07 Aug 2020 UTC via an FALCON 9 launch vehicle from the Air Force Eastern Test Range (AFETR). Payload-class satellites include a variety of spacecraft equipped with specific instruments for various scientific and technological missions. These include communications satellites like Starlink; space stations such as the ISS; scientific satellites like the Hubble; Earth observation satellites from companies like Planet Labs, Umbra, and HawkEye 360; GPS; miniature CubeSats for education and research; and military/defense satellites.

Loading next visibility...
Identifier
46060, 2020-055AK
Orbit
LEO
Country
Flag of USUS
Related business
Manufacturer
SpaceX/Seattle
Mission
Operational Commercial Communications
Bus & Motor
STARLINK, Unknown motor
Mass
260 kg wet, ~248 kg dry
Launch date (UTC)
2020-08-07 (6 years ago)
Launch vehicle
FALCON 9
Launch site
Air Force Eastern Test Range (AFETR)
Object type
Payload
Rocket body
Debris
Shape & HBR
Box + 1 Pan, 10.1 m
Radar Cross Section
13.562 m², Large (>1 m²)

Expand to show TLE details & history
Last TLE update: 1 day ago

TLE from 1 day ago
0 STARLINK-1572
1 46060U 20055AK  26170.75094440  .00000312  00000-0  22637-4 0  9997
2 46060  53.1618   0.0487 0001114  91.8442 268.2687 15.30207783324662
Epoch: 2026-06-19T18:01Z
TLE epoch observation values (Epoch: 2026-06-19T18:01:21.596Z)
Latitude
0.00004°
Longitude
-178.26668°
Altitude
476.115 km
Speed
7.629 km/s
True Right ascension
00h 00m 11s
True Declination
0° 00' 00"
Sunlit
Object was in daylight at epoch
Visualization orbit readout
Latitude
Unknown
Longitude
Unknown
Altitude
Unknown
Speed
Unknown
Apparent Right ascension
Unknown
Apparent Declination
Unknown
Sunlit
N/A
Visualization observer readout
Local Sidereal Time
06:40:51
Azimuth
Unknown
Elevation
Unknown
Doppler factor
Unknown
Orbital elements
Apogee altitude
476.211 km
Perigee altitude
474.684 km
Semi-major axis
6,853.585 km
Eccentricity
0.00011
Inclination
53.1618°
RAAN
0.0487°
Arg. of periapsis
91.8442°
True anomaly
268.25594°
Mean anomaly
268.2687°
Eccentric anomaly
268.26232°
Mean motion
3.82531 °/min
Orbital period
94.11 mins
BSTAR
0.000022637
Loading maneuver chart data...
Computing Atmospheric mass density...
Loading historical data...
Loading historical data...
Loading historical data...
Loading historical data...
Loading historical data...
Loading historical data...
Loading historical data...

Documentation

Showing up to 5 results
|